| time (UTC) | temp F | wind direction | speed knots | gust knots | rain 1hr in | rain 24hr in | rain mn in | humidity % | barometer mb |
| 20260502212623 | 66 | 115 | 1.7 | 5.2 | 0.00 | 0.00 | 0.00 | 72 | 1022.3 |
| 20260502212119 | 67 | 86 | 2.6 | 7.0 | 0.00 | 0.00 | 0.00 | 72 | 1022.3 |
| 20260502211618 | 67 | 349 | 2.6 | 7.8 | 0.00 | 0.00 | 0.00 | 72 | 1022.5 |
| 20260502211121 | 67 | 65 | 2.6 | 7.8 | 0.00 | 0.00 | 0.00 | 73 | 1022.6 |
| 20260502210618 | 66 | 13 | 2.6 | 7.0 | 0.00 | 0.00 | 0.00 | 74 | 1022.7 |
| 20260502210118 | 65 | 76 | 1.7 | 7.0 | 0.00 | 0.00 | 0.00 | 74 | 1022.7 |
| 20260502205621 | 65 | 17 | 2.6 | 7.0 | 0.00 | 0.00 | 0.00 | 74 | 1022.8 |
| 20260502205115 | 65 | 279 | 2.6 | 7.0 | 0.00 | 0.00 | 0.00 | 73 | 1022.9 |
| 20260502204615 | 65 | 263 | 1.7 | 6.1 | 0.00 | 0.00 | 0.00 | 72 | 1022.9 |
| 20260502204115 | 64 | 279 | 1.7 | 6.1 | 0.00 | 0.00 | 0.00 | 74 | 1022.8 |
| 20260502203614 | 64 | 293 | 1.7 | 6.1 | 0.00 | 0.00 | 0.00 | 73 | 1023.0 |
| 20260502203114 | 64 | 51 | 2.6 | 7.8 | 0.00 | 0.00 | 0.00 | 75 | 1023.0 |
| 20260502202616 | 63 | 355 | 2.6 | 7.8 | 0.00 | 0.00 | 0.00 | 73 | 1023.2 |
| 20260502202110 | 63 | 83 | 2.6 | 7.8 | 0.00 | 0.00 | 0.00 | 75 | 1023.2 |
| 20260502201611 | 62 | 11 | 3.5 | 7.8 | 0.00 | 0.00 | 0.00 | 76 | 1023.2 |
| 20260502201111 | 62 | 330 | 2.6 | 7.0 | 0.00 | 0.00 | 0.00 | 77 | 1023.2 |
| 20260502200610 | 62 | 309 | 1.7 | 7.8 | 0.00 | 0.00 | 0.00 | 76 | 1023.4 |
| 20260502200111 | 62 | 53 | 1.7 | 7.8 | 0.00 | 0.00 | 0.00 | 76 | 1023.4 |
| 20260502195612 | 62 | 5 | 2.6 | 6.1 | 0.00 | 0.00 | 0.00 | 75 | 1023.5 |
| 20260502195112 | 62 | 319 | 1.7 | 6.1 | 0.00 | 0.00 | 0.00 | 75 | 1023.7 |
| 20260502194610 | 62 | 355 | 1.7 | 7.0 | 0.00 | 0.00 | 0.00 | 75 | 1023.7 |
| 20260502194108 | 62 | 174 | 1.7 | 7.0 | 0.00 | 0.00 | 0.00 | 75 | 1023.9 |
| 20260502193609 | 61 | 76 | 2.6 | 7.8 | 0.00 | 0.00 | 0.00 | 77 | 1023.8 |
| 20260502193107 | 61 | 288 | 2.6 | 7.8 | 0.00 | 0.00 | 0.00 | 76 | 1023.8 |
| 20260502192606 | 60 | 80 | 2.6 | 7.0 | 0.00 | 0.00 | 0.00 | 78 | 1023.8 |
| 20260502192108 | 60 | 338 | 1.7 | 4.3 | 0.00 | 0.00 | 0.00 | 77 | 1023.8 |
| 20260502191603 | 60 | 26 | 2.6 | 7.8 | 0.00 | 0.00 | 0.00 | 77 | 1024.0 |
| 20260502191102 | 60 | 0 | 1.7 | 7.8 | 0.00 | 0.00 | 0.00 | 78 | 1023.8 |
| 20260502190603 | 60 | 26 | 1.7 | 6.1 | 0.00 | 0.00 | 0.00 | 78 | 1024.0 |
| 20260502190058 | 60 | 113 | 1.7 | 4.3 | 0.00 | 0.00 | 0.00 | 78 | 1024.0 |
| 20260502185558 | 60 | 74 | 1.7 | 4.3 | 0.00 | 0.00 | 0.00 | 80 | 1024.0 |
| 20260502185100 | 59 | 78 | 1.7 | 6.1 | 0.00 | 0.00 | 0.00 | 81 | 1024.2 |
| 20260502184558 | 59 | 65 | 1.7 | 6.1 | 0.00 | 0.00 | 0.00 | 83 | 1024.2 |
| 20260502184056 | 58 | 112 | 1.7 | 5.2 | 0.00 | 0.00 | 0.00 | 86 | 1024.4 |
| 20260502183556 | 57 | 75 | 2.6 | 6.1 | 0.00 | 0.00 | 0.00 | 85 | 1024.4 |
| 20260502183052 | 57 | 350 | 1.7 | 6.1 | 0.00 | 0.00 | 0.00 | 82 | 1024.6 |
| 20260502182552 | 57 | 16 | 1.7 | 4.3 | 0.00 | 0.00 | 0.00 | 82 | 1024.5 |
| 20260502182050 | 57 | 113 | 1.7 | 8.7 | 0.00 | 0.00 | 0.00 | 84 | 1024.6 |
| 20260502181550 | 57 | 66 | 1.7 | 8.7 | 0.00 | 0.00 | 0.00 | 86 | 1024.4 |
| 20260502181050 | 57 | 355 | 2.6 | 7.0 | 0.00 | 0.00 | 0.00 | 86 | 1024.3 |
| 20260502180551 | 56 | 71 | 1.7 | 7.0 | 0.00 | 0.00 | 0.00 | 86 | 1024.2 |
| 20260502164032 | 55 | 292 | 0.9 | 5.2 | 0.00 | 0.00 | 0.00 | 84 | 1024.8 |
| 20260502163533 | 55 | 51 | 2.6 | 5.2 | 0.00 | 0.00 | 0.00 | 83 | 1025.0 |
| 20260502163028 | 55 | 275 | 1.7 | 5.2 | 0.00 | 0.00 | 0.00 | 84 | 1024.9 |
| 20260502162527 | 54 | 252 | 0.9 | 5.2 | 0.00 | 0.00 | 0.00 | 84 | 1024.8 |
| 20260502162029 | 54 | 305 | 1.7 | 5.2 | 0.00 | 0.00 | 0.00 | 85 | 1024.7 |
| 20260502161529 | 53 | 10 | 2.6 | 5.2 | 0.00 | 0.00 | 0.00 | 85 | 1025.0 |
| 20260502161026 | 53 | 280 | 1.7 | 3.5 | 0.00 | 0.00 | 0.00 | 84 | 1024.9 |
| 20260502160527 | 53 | 271 | 1.7 | 3.5 | 0.00 | 0.00 | 0.00 | 85 | 1024.9 |
| 20260502152014 | 51 | 343 | 0.9 | 3.5 | 0.00 | 0.00 | 0.00 | 88 | 1024.4 |
| 20260502151513 | 51 | 288 | 0.9 | 2.6 | 0.00 | 0.00 | 0.00 | 88 | 1024.6 |
| 20260502151014 | 51 | 294 | 0.9 | 2.6 | 0.00 | 0.00 | 0.00 | 88 | 1024.5 |
| 20260502150515 | 51 | 331 | 0.9 | 3.5 | 0.00 | 0.00 | 0.00 | 87 | 1024.5 |
| 20260502130451 | 51 | 285 | 1.7 | 3.5 | 0.00 | 0.00 | 0.00 | 87 | 1024.6 |
| 20260502123445 | 51 | 0 | 1.7 | 4.3 | 0.00 | 0.00 | 0.00 | 87 | 1024.5 |
| 20260502122941 | 51 | 336 | 0.9 | 3.5 | 0.00 | 0.00 | 0.00 | 88 | 1024.7 |
| 20260502122441 | 51 | 336 | 0.9 | 2.6 | 0.00 | 0.00 | 0.00 | 88 | 1024.5 |
| 20260502121943 | 51 | 297 | 0.9 | 2.6 | 0.00 | 0.00 | 0.00 | 88 | 1024.7 |
| 20260502121439 | 51 | 319 | 1.7 | 3.5 | 0.00 | 0.00 | 0.00 | 88 | 1024.6 |
| 20260502120938 | 51 | 278 | 1.7 | 3.5 | 0.00 | 0.00 | 0.00 | 88 | 1024.6 |
| 20260502120439 | 51 | 289 | 1.7 | 5.2 | 0.00 | 0.00 | 0.00 | 88 | 1024.7 |
| 20260502115435 | 50 | 277 | 1.7 | 5.2 | 0.00 | 0.00 | 0.00 | 88 | 1024.6 |
| 20260502114937 | 50 | 266 | 0.9 | 3.5 | 0.00 | 0.00 | 0.00 | 88 | 1024.6 |
| 20260502114436 | 50 | 277 | 0.9 | 2.6 | 0.00 | 0.00 | 0.00 | 88 | 1024.7 |
| 20260502113936 | 50 | 278 | 1.7 | 4.3 | 0.00 | 0.00 | 0.00 | 89 | 1024.7 |
| 20260502113437 | 50 | 355 | 0.9 | 4.3 | 0.00 | 0.00 | 0.00 | 89 | 1024.6 |
| 20260502112935 | 50 | 305 | 0.9 | 3.5 | 0.00 | 0.00 | 0.00 | 89 | 1024.6 |
| 20260502112435 | 50 | 298 | 0.9 | 2.6 | 0.00 | 0.00 | 0.00 | 89 | 1024.6 |
| 20260502111937 | 50 | 284 | 0.9 | 1.7 | 0.00 | 0.00 | 0.00 | 89 | 1024.6 |
| 20260502111431 | 50 | 279 | 0.9 | 2.6 | 0.00 | 0.00 | 0.00 | 88 | 1024.7 |
| 20260502110932 | 50 | 279 | 0.9 | 2.6 | 0.00 | 0.00 | 0.00 | 89 | 1024.8 |
| 20260502110433 | 50 | 300 | 0.9 | 2.6 | 0.00 | 0.00 | 0.00 | 88 | 1024.7 |
| 20260502105931 | 50 | 12 | 0.9 | 3.5 | 0.00 | 0.00 | 0.00 | 88 | 1024.6 |
| 20260502105431 | 50 | 12 | 0.9 | 3.5 | 0.00 | 0.00 | 0.00 | 88 | 1024.4 |
| 20260502104932 | 50 | 34 | 0.9 | 3.5 | 0.00 | 0.00 | 0.00 | 88 | 1024.5 |
| 20260502104428 | 50 | 344 | 0.9 | 2.6 | 0.00 | 0.00 | 0.00 | 88 | 1024.6 |
| 20260502103928 | 50 | 309 | 1.7 | 3.5 | 0.00 | 0.00 | 0.00 | 88 | 1024.8 |
| 20260502103429 | 50 | 307 | 1.7 | 3.5 | 0.00 | 0.00 | 0.00 | 88 | 1024.6 |
| 20260502102928 | 51 | 5 | 1.7 | 4.3 | 0.00 | 0.00 | 0.00 | 88 | 1024.5 |
| 20260502102427 | 51 | 345 | 1.7 | 4.3 | 0.00 | 0.00 | 0.00 | 88 | 1024.5 |
| 20260502101929 | 51 | 355 | 1.7 | 4.3 | 0.00 | 0.00 | 0.00 | 88 | 1024.5 |
| 20260502101428 | 51 | 292 | 0.9 | 2.6 | 0.00 | 0.00 | 0.00 | 87 | 1024.5 |
| 20260502100927 | 51 | 323 | 1.7 | 5.2 | 0.00 | 0.00 | 0.00 | 87 | 1024.5 |
| 20260502100427 | 51 | 315 | 1.7 | 6.1 | 0.00 | 0.00 | 0.00 | 87 | 1024.5 |
| 20260502091427 | 53 | 276 | 2.6 | 5.2 | 0.00 | 0.00 | 0.00 | 85 | 1024.7 |
| 20260502090923 | 53 | 302 | 1.7 | 5.2 | 0.00 | 0.00 | 0.00 | 84 | 1024.7 |
| 20260502090421 | 53 | 274 | 1.7 | 4.3 | 0.00 | 0.00 | 0.00 | 84 | 1024.8 |
| 20260502071351 | 54 | 304 | 0.9 | 2.6 | 0.00 | 0.00 | 0.00 | 83 | 1025.9 |
| 20260502070851 | 54 | 304 | 0.9 | 2.6 | 0.00 | 0.00 | 0.00 | 83 | 1025.8 |
| 20260502070352 | 55 | 308 | 0.9 | 3.5 | 0.00 | 0.00 | 0.00 | 83 | 1025.7 |
| 20260502065850 | 55 | 319 | 0.9 | 3.5 | 0.00 | 0.00 | 0.00 | 83 | 1025.6 |
| 20260502065347 | 55 | 333 | 0.9 | 2.6 | 0.00 | 0.00 | 0.00 | 83 | 1025.5 |
| 20260502064849 | 55 | 274 | 0.9 | 2.6 | 0.00 | 0.00 | 0.00 | 83 | 1025.5 |
| 20260502064345 | 55 | 337 | 0.9 | 3.5 | 0.00 | 0.00 | 0.00 | 83 | 1025.7 |
| 20260502063843 | 55 | 273 | 0.9 | 3.5 | 0.00 | 0.00 | 0.00 | 83 | 1025.6 |
| 20260502063344 | 55 | 333 | 0.9 | 3.5 | 0.00 | 0.00 | 0.00 | 83 | 1025.5 |
| 20260502062838 | 55 | 298 | 0.9 | 5.2 | 0.00 | 0.00 | 0.00 | 83 | 1025.5 |
| 20260502062338 | 55 | 261 | 0.9 | 5.2 | 0.00 | 0.00 | 0.00 | 83 | 1025.6 |
| 20260502061837 | 55 | 288 | 1.7 | 5.2 | 0.00 | 0.00 | 0.00 | 83 | 1025.6 |
| 20260502061337 | 55 | 298 | 1.7 | 5.2 | 0.00 | 0.00 | 0.00 | 83 | 1025.6 |
| 20260502060838 | 55 | 284 | 1.7 | 4.3 | 0.00 | 0.00 | 0.00 | 83 | 1025.6 |
| 20260502060338 | 55 | 320 | 0.9 | 3.5 | 0.00 | 0.00 | 0.00 | 83 | 1025.5 |
| 20260502055833 | 55 | 281 | 0.0 | 1.7 | 0.00 | 0.00 | 0.00 | 83 | 1025.5 |
| 20260502055331 | 55 | 282 | 0.0 | 1.7 | 0.00 | 0.00 | 0.00 | 83 | 1025.6 |
| 20260502054832 | 55 | 281 | 0.9 | 1.7 | 0.00 | 0.00 | 0.00 | 83 | 1025.4 |
| 20260502054331 | 55 | 281 | 0.9 | 1.7 | 0.00 | 0.00 | 0.00 | 83 | 1025.3 |
| 20260502053831 | 55 | 281 | 0.9 | 1.7 | 0.00 | 0.00 | 0.00 | 83 | 1025.4 |
| 20260502053332 | 55 | 281 | 0.9 | 3.5 | 0.00 | 0.00 | 0.00 | 83 | 1025.3 |
| 20260502052827 | 55 | 0 | 0.9 | 3.5 | 0.00 | 0.00 | 0.00 | 82 | 1025.3 |
| 20260502052327 | 55 | 289 | 1.7 | 3.5 | 0.00 | 0.00 | 0.00 | 83 | 1025.1 |
| 20260502051829 | 56 | 273 | 0.9 | 3.5 | 0.00 | 0.00 | 0.00 | 82 | 1025.1 |
| 20260502051328 | 56 | 319 | 1.7 | 2.6 | 0.00 | 0.00 | 0.00 | 82 | 1025.1 |
| 20260502050825 | 56 | 272 | 0.9 | 2.6 | 0.00 | 0.00 | 0.00 | 82 | 1025.1 |
| 20260502050325 | 56 | 350 | 0.0 | 2.6 | 0.00 | 0.00 | 0.00 | 82 | 1025.0 |
| 20260502045822 | 56 | 304 | 0.0 | 1.7 | 0.00 | 0.00 | 0.00 | 82 | 1025.0 |
| 20260502045321 | 56 | 284 | 0.9 | 2.6 | 0.00 | 0.00 | 0.00 | 82 | 1024.9 |
| 20260502044822 | 56 | 283 | 0.9 | 2.6 | 0.00 | 0.00 | 0.00 | 82 | 1024.9 |
| 20260502044321 | 56 | 288 | 1.7 | 5.2 | 0.00 | 0.00 | 0.00 | 81 | 1024.9 |
| 20260502043819 | 56 | 264 | 1.7 | 5.2 | 0.00 | 0.00 | 0.00 | 81 | 1024.9 |
| 20260502043320 | 56 | 281 | 1.7 | 7.0 | 0.00 | 0.00 | 0.00 | 81 | 1024.9 |
| 20260502042815 | 56 | 273 | 2.6 | 7.0 | 0.00 | 0.00 | 0.00 | 81 | 1024.8 |
| 20260502042312 | 57 | 267 | 1.7 | 6.1 | 0.00 | 0.00 | 0.00 | 81 | 1024.8 |
| 20260502041813 | 57 | 284 | 1.7 | 5.2 | 0.00 | 0.00 | 0.00 | 81 | 1024.6 |
| 20260502041313 | 57 | 251 | 2.6 | 6.1 | 0.00 | 0.00 | 0.00 | 81 | 1024.6 |
| 20260502040813 | 57 | 299 | 2.6 | 6.1 | 0.00 | 0.00 | 0.00 | 81 | 1024.6 |
| 20260502040314 | 57 | 249 | 2.6 | 6.1 | 0.00 | 0.00 | 0.00 | 81 | 1024.5 |
| 20260502035808 | 57 | 287 | 3.5 | 7.0 | 0.00 | 0.00 | 0.00 | 81 | 1024.4 |
| 20260502035307 | 57 | 267 | 3.5 | 7.8 | 0.00 | 0.00 | 0.00 | 81 | 1024.3 |
| 20260502034807 | 57 | 296 | 3.5 | 7.8 | 0.00 | 0.00 | 0.00 | 81 | 1024.3 |
| 20260502034307 | 57 | 282 | 2.6 | 7.8 | 0.00 | 0.00 | 0.00 | 81 | 1024.2 |
| 20260502033807 | 57 | 265 | 3.5 | 7.8 | 0.00 | 0.00 | 0.00 | 81 | 1024.2 |
| 20260502033308 | 57 | 239 | 3.5 | 7.8 | 0.00 | 0.00 | 0.00 | 80 | 1024.2 |
| 20260502032802 | 57 | 257 | 3.5 | 10.4 | 0.00 | 0.00 | 0.00 | 80 | 1024.1 |
| 20260502032301 | 57 | 258 | 3.5 | 10.4 | 0.00 | 0.00 | 0.00 | 79 | 1024.0 |
| 20260502031800 | 58 | 234 | 3.5 | 9.6 | 0.00 | 0.00 | 0.00 | 79 | 1023.9 |
| 20260502031301 | 58 | 0 | 3.5 | 7.8 | 0.00 | 0.00 | 0.00 | 78 | 1023.9 |
| 20260502030801 | 58 | 0 | 3.5 | 8.7 | 0.00 | 0.00 | 0.00 | 77 | 1023.9 |
| 20260502030301 | 59 | 296 | 3.5 | 8.7 | 0.00 | 0.00 | 0.00 | 77 | 1023.8 |
| 20260502025758 | 59 | 299 | 2.6 | 8.7 | 0.00 | 0.00 | 0.00 | 76 | 1023.7 |
| 20260502025257 | 60 | 326 | 2.6 | 7.0 | 0.00 | 0.00 | 0.00 | 76 | 1023.6 |
| 20260502024755 | 60 | 267 | 2.6 | 7.8 | 0.00 | 0.00 | 0.00 | 75 | 1023.6 |
| 20260502024255 | 60 | 291 | 2.6 | 7.8 | 0.00 | 0.00 | 0.00 | 75 | 1023.5 |
| 20260502023755 | 61 | 269 | 2.6 | 7.0 | 0.00 | 0.00 | 0.00 | 74 | 1023.5 |
| 20260502023301 | 61 | 304 | 2.6 | 6.1 | 0.00 | 0.00 | 0.00 | 74 | 1023.4 |
| 20260502022753 | 61 | 272 | 1.7 | 6.1 | 0.00 | 0.00 | 0.00 | 74 | 1023.6 |
| 20260502022250 | 61 | 268 | 2.6 | 9.6 | 0.00 | 0.00 | 0.00 | 73 | 1023.5 |
| 20260502021749 | 62 | 0 | 3.5 | 9.6 | 0.00 | 0.00 | 0.00 | 73 | 1023.4 |
| 20260502021249 | 62 | 355 | 2.6 | 7.0 | 0.00 | 0.00 | 0.00 | 73 | 1023.4 |
| 20260502020749 | 62 | 270 | 1.7 | 6.1 | 0.00 | 0.00 | 0.00 | 72 | 1023.3 |
| 20260502020250 | 62 | 254 | 2.6 | 7.8 | 0.00 | 0.00 | 0.00 | 73 | 1023.3 |
| 20260502015744 | 63 | 225 | 3.5 | 7.8 | 0.00 | 0.00 | 0.00 | 72 | 1023.3 |
| 20260502015243 | 63 | 243 | 3.5 | 10.4 | 0.00 | 0.00 | 0.00 | 71 | 1023.3 |
| 20260502014743 | 64 | 203 | 4.3 | 10.4 | 0.00 | 0.00 | 0.00 | 70 | 1023.2 |
| 20260502014243 | 65 | 229 | 3.5 | 10.4 | 0.00 | 0.00 | 0.00 | 70 | 1023.2 |
| 20260502013743 | 65 | 0 | 2.6 | 10.4 | 0.00 | 0.00 | 0.00 | 69 | 1023.1 |
| 20260502013242 | 66 | 273 | 3.5 | 7.0 | 0.00 | 0.00 | 0.00 | 69 | 1023.2 |
| 20260502012736 | 66 | 43 | 2.6 | 7.0 | 0.00 | 0.00 | 0.00 | 68 | 1023.1 |
| 20260502012237 | 67 | 310 | 3.5 | 7.8 | 0.00 | 0.00 | 0.00 | 68 | 1023.2 |
| 20260502011737 | 67 | 263 | 3.5 | 9.6 | 0.00 | 0.00 | 0.00 | 67 | 1023.3 |
| 20260502011236 | 67 | 284 | 3.5 | 9.6 | 0.00 | 0.00 | 0.00 | 67 | 1023.3 |
| 20260502010737 | 67 | 268 | 3.5 | 8.7 | 0.00 | 0.00 | 0.00 | 67 | 1023.3 |
| 20260502010238 | 67 | 288 | 2.6 | 7.8 | 0.00 | 0.00 | 0.00 | 68 | 1023.2 |
| 20260502005732 | 67 | 340 | 2.6 | 7.8 | 0.00 | 0.00 | 0.00 | 68 | 1023.2 |
| 20260502005231 | 68 | 265 | 3.5 | 7.0 | 0.00 | 0.00 | 0.00 | 66 | 1023.1 |
| 20260502004731 | 68 | 265 | 3.5 | 7.0 | 0.00 | 0.00 | 0.00 | 66 | 1023.2 |
| 20260502004231 | 69 | 0 | 4.3 | 9.6 | 0.00 | 0.00 | 0.00 | 65 | 1023.1 |
| 20260502003731 | 69 | 267 | 5.2 | 9.6 | 0.00 | 0.00 | 0.00 | 63 | 1023.2 |
| 20260502003232 | 70 | 311 | 4.3 | 9.6 | 0.00 | 0.00 | 0.00 | 63 | 1023.1 |
| 20260502002733 | 70 | 346 | 3.5 | 9.6 | 0.00 | 0.00 | 0.00 | 63 | 1023.1 |
| 20260502002227 | 71 | 291 | 3.5 | 8.7 | 0.00 | 0.00 | 0.00 | 63 | 1023.1 |
| 20260502001725 | 71 | 265 | 4.3 | 9.6 | 0.00 | 0.00 | 0.00 | 62 | 1023.1 |
| 20260502001224 | 72 | 278 | 3.5 | 9.6 | 0.00 | 0.00 | 0.00 | 61 | 1022.9 |
| 20260502000724 | 73 | 0 | 3.5 | 9.6 | 0.00 | 0.00 | 0.00 | 61 | 1023.0 |
| 20260502000226 | 73 | 5 | 3.5 | 7.8 | 0.00 | 0.00 | 0.00 | 61 | 1023.0 |
| 20260501235720 | 73 | 321 | 3.5 | 9.6 | 0.00 | 0.00 | 0.00 | 61 | 1023.0 |
| 20260501235221 | 73 | 298 | 4.3 | 9.6 | 0.00 | 0.00 | 0.00 | 60 | 1023.1 |
| 20260501234722 | 73 | 292 | 4.3 | 8.7 | 0.00 | 0.00 | 0.00 | 60 | 1023.2 |
| 20260501234221 | 73 | 263 | 4.3 | 10.4 | 0.00 | 0.00 | 0.00 | 59 | 1023.2 |
| 20260501233719 | 74 | 259 | 4.3 | 10.4 | 0.00 | 0.00 | 0.00 | 59 | 1023.1 |
| 20260501233220 | 74 | 324 | 4.3 | 9.6 | 0.00 | 0.00 | 0.00 | 60 | 1023.2 |
| 20260501232717 | 73 | 330 | 3.5 | 9.6 | 0.00 | 0.00 | 0.00 | 61 | 1023.3 |
| 20260501232216 | 73 | 250 | 2.6 | 7.0 | 0.00 | 0.00 | 0.00 | 62 | 1023.2 |
| 20260501231709 | 73 | 346 | 3.5 | 7.0 | 0.00 | 0.00 | 0.00 | 62 | 1023.2 |
| 20260501231204 | 73 | 273 | 3.5 | 7.0 | 0.00 | 0.00 | 0.00 | 61 | 1023.3 |
| 20260501230702 | 74 | 275 | 2.6 | 7.0 | 0.00 | 0.00 | 0.00 | 60 | 1023.4 |
| 20260501230203 | 75 | 255 | 1.7 | 7.0 | 0.00 | 0.00 | 0.00 | 60 | 1023.3 |
| 20260501225702 | 75 | 175 | 0.9 | 4.3 | 0.00 | 0.00 | 0.00 | 61 | 1023.4 |
| 20260501225203 | 75 | 241 | 1.7 | 6.1 | 0.00 | 0.00 | 0.00 | 59 | 1023.3 |
| 20260501224702 | 75 | 96 | 1.7 | 6.1 | 0.00 | 0.00 | 0.00 | 63 | 1023.5 |
| 20260501224204 | 74 | 250 | 1.7 | 6.1 | 0.00 | 0.00 | 0.00 | 61 | 1023.5 |
| 20260501223658 | 74 | 316 | 2.6 | 6.1 | 0.00 | 0.00 | 0.00 | 60 | 1023.5 |
| 20260501223159 | 74 | 257 | 2.6 | 6.1 | 0.00 | 0.00 | 0.00 | 59 | 1023.5 |
| 20260501222659 | 74 | 240 | 1.7 | 4.3 | 0.00 | 0.00 | 0.00 | 61 | 1023.5 |
| 20260501222158 | 74 | 93 | 1.7 | 6.1 | 0.00 | 0.00 | 0.00 | 59 | 1023.6 |
| 20260501221659 | 73 | 324 | 1.7 | 6.1 | 0.00 | 0.00 | 0.00 | 59 | 1023.6 |
| 20260501221200 | 73 | 234 | 1.7 | 5.2 | 0.00 | 0.00 | 0.00 | 59 | 1023.7 |
| 20260501220654 | 73 | 263 | 2.6 | 6.1 | 0.00 | 0.00 | 0.00 | 57 | 1023.7 |
| 20260501220155 | 73 | 255 | 2.6 | 6.1 | 0.00 | 0.00 | 0.00 | 58 | 1023.8 |
| 20260501215655 | 73 | 240 | 2.6 | 5.2 | 0.00 | 0.00 | 0.00 | 58 | 1023.8 |
| 20260501215154 | 73 | 281 | 1.7 | 5.2 | 0.00 | 0.00 | 0.00 | 59 | 1023.8 |
| 20260501214655 | 73 | 305 | 1.7 | 7.0 | 0.00 | 0.00 | 0.00 | 59 | 1024.0 |
| 20260501214156 | 73 | 88 | 1.7 | 7.0 | 0.00 | 0.00 | 0.00 | 61 | 1024.0 |
| 20260501213655 | 72 | 223 | 1.7 | 5.2 | 0.00 | 0.00 | 0.00 | 62 | 1024.1 |
| 20260501213154 | 72 | 194 | 1.7 | 4.3 | 0.00 | 0.00 | 0.00 | 61 | 1024.1 |